Location: Oriwa
(40.7500°S, 175.3333°E)
Time: 14:11:29
(UTC+00:00)

Cosmos 1707 - Pass Details

Date: 03 February 2023
Orbit: 501 x 514 km, 82.5° (Epoch: 31 March)

Event Time Altitude Azimuth Distance (km) Brightness Sun altitude
Exits shadow 15:21:46 29° 242° (WSW) 1,005 4.0 -20.6°
Drops below altitude 10° 15:24:45 10° 194° (SSW) 1,789 5.8 -20.2°
Sets 15:27:07 0° 183° (S) 2,684 7.0 -19.9°
